Regional Weather Roundup
Issued by NWS Kansas City/Pleasant Hill, MO

Home | Current Version | Previous Version | Text Only | Print | Product List | Glossary On
Versions: 1 2 3 4 5 6 7 8 9 10 11 12 13 14 15 16 17 18 19 20 21 22 23 24 25 26 27 28 29 30 31 32 33 34 35 36 37 38 39 40 41 42 43 44 45 46 47 48 49 50
000
ASUS43 KEAX 020311
RWREAX

WEATHER ROUNDUP FOR EASTERN KANSAS AND NORTHWEST MISSOURI
NATIONAL WEATHER SERVICE KANSAS CITY/PLEASANT HILL MO
900 PM CST SUN MAR 01 2015

KSZ040-057-103>105-MOZ028-029-037-043-020400-
...KANSAS CITY METROPOLITAN AREA...

CITY           SKY/WX    TMP DP  RH WIND       PRES   REMARKS
K.C. INTL      FAIR      25  19  78 CALM      30.44R
K.C. DOWNTOWN  CLEAR     29  21  72 CALM      30.45R
LEES SUMMIT    PTCLDY    28  19  69 CALM      30.44R
OLATHE - IXD   CLEAR     24  19  81 N3        30.45R
OLATHE - OJC   PTCLDY    27  18  69 CALM      30.43R
LAWRENCE       CLEAR     24  19  81 CALM      30.46R

$$

MOZ001>008-011>017-020>025-030>033-038>040-044>046-053-054-020400-
...NORTHERN AND CENTRAL MISSOURI...

CITY           SKY/WX    TMP DP  RH WIND       PRES   REMARKS
ST. JOSEPH     MOCLDY    27  22  81 CALM      30.46R
MOSBY          CLEAR     27  23  86 CALM      30.46R
WARRENSBURG    PTCLDY    23  19  86 CALM      30.46R
WHITEMAN AFB   PTCLDY    16  13  89 S6        30.44R WCI   7
CLINTON        PTCLDY    23  21  93 MISG      30.47R
SEDALIA        PTCLDY    26  18  71 CALM      30.46R
WARSAW         NOT AVBL
MARSHALL       PTCLDY    28  23  80 CALM      30.45R
CHILLICOTHE      N/A     25  20  81 CALM      30.46R
MOBERLY        PTCLDY    23  18  80 CALM      30.44R
KIRKSVILLE     MOCLDY    23  19  85 W5        30.44R WCI  17

$$

MOZ041-047>049-056>058-063>065-088>090-097-020400-
...EASTERN AND SOUTHERN MISSOURI...

CITY           SKY/WX    TMP DP  RH WIND       PRES   REMARKS
ST. LOUIS INTL MOCLDY    26  19  74 CALM      30.45R
SPIRIT OF STL  PTCLDY    16  15  96 SW3       30.45R
COLUMBIA       MOCLDY    20  17  88 SW3       30.44R
JEFFERSON CITY MOCLDY    23  19  85 CALM      30.47R
MEXICO         MOCLDY    27  23  86 W5        30.43R WCI  21
HANNIBAL       MOCLDY    23  16  74 W5        30.44R WCI  17
ROLLA          MOCLDY    25  20  81 NW5       30.42R WCI  19
LEBANON        CLOUDY    28  23  80 CALM      30.43R
OSAGE BEACH    PTCLDY    25  19  80 CALM      30.45R
SPRINGFIELD    CLOUDY    29  23  78 N5        30.41R WCI  24
BRANSON        CLOUDY    30  28  93 CALM      30.41R
NEVADA         PTCLDY    23  19  86 CALM      30.48R
JOPLIN         PTCLDY    27  21  78 NE6       30.44R WCI  20
WEST PLAINS    CLOUDY    31  25  78 N7        30.40R WCI  24

$$

IAZ060-094-KSZ022-034>040-054-083-096-NEZ052-066-093-020400-
...KANSAS...SOUTHEAST NEBRASKA AND IOWA...

CITY           SKY/WX    TMP DP  RH WIND       PRES   REMARKS
TOPEKA         PTCLDY    26  21  81 CALM      30.45S
MANHATTAN      CLEAR     24  20  84 CALM      30.45R
EMPORIA        PTCLDY    27  20  75 NE3       30.43R
CHANUTE        FAIR      22  19  89 CALM      30.45R
WICHITA        MOCLDY    25  18  74 CALM      30.44R
OMAHA          PTCLDY    26  18  71 S3        30.42R
LINCOLN        PTCLDY    22  14  71 CALM      30.43R
FALLS CITY     CLOUDY    30  19  63 S5        30.43R WCI  25
LAMONI         MOCLDY    28  18  66 N3        30.42R
DES MOINES     PTCLDY    25  14  63 S7        30.40S WCI  17

$$




USA.gov is the U.S. government's official web portal to all federal, state and local government web resources and services.